User: anonymous   Login
Location: Unspecified
(0.0000°N, 0.0000°E)
Time: 03:12:41
(UTC+01:00)
Language:

Cosmos 1758 - Orbit

View from above orbital plane
View from above orbital plane
View from above satellite
View from above satellite

Ground track
Ground track

The orbit data is extracted from the following two-line orbital elements,

1 16791U 86046A   14323.20137430  .00005774  00000-0  43963-3 0  1859
2 16791 082.4733 227.6528 0019349 051.0640 309.2306 15.01770601544281
Epoch (UTC): 19 November 2014 04:49:58
Eccentricity: 0.0019349
inclination: 82.4733°
perigee height: 548 km
apogee height: 575 km
right ascension of ascending node: 227.6528°
argument of perigee: 51.0640°
revolutions per day: 15.01770601
mean anomaly at epoch: 309.2306°
orbit number at epoch: 54428

The dashed part of the orbit path shows where the satellite is in the earth's shadow,  

DLR